RH
45 22 18 12 18 18 14 9 6 7 10 21 19 25 44 54 63 76 87 78 73 69 71 79 92 93 92 92 92 92 89 87 88 89 89 88 88 87 88 89 88 85 81 79 77 78 78 81 84
16 13 8 12 20 18 12 7 10 21 25 25 23 21 20 66 74 95 88 79 72 68 76 84 92 91 91 91 91 90 87 90 91 90 87 87 87 87 86 87 87 84 83 82 83 85 84 89 91
20 10 11 13 16 16 12 7 9 20 21 19 23 29 41 63 71 83 80 76 72 74 80 85 91 90 87 87 88 88 88 89 89 87 84 86 86 84 86 86 84 83 82 82 82 83 85 86 88
11 9 10 14 14 11 9 9 9 10 20 20 21 46 45 56 64 72 73 69 70 76 80 87 89 88 86 85 86 85 85 87 86 84 83 83 84 84 84 82 81 80 79 78 78 78 79 80 82
9 10 12 13 12 10 8 8 8 9 10 22 23 46 60 65 66 72 73 72 86 83 77 78 87 86 82 82 82 82 82 82 82 81 80 80 81 78 77 76 74 73 72 72 72 72 72 74 75
12 10 13 12 10 8 8 8 8 9 9 22 26 42 57 63 67 71 75 80 81 83 81 79 82 82 80 80 82 81 80 78 78 77 75 74 73 72 71 70 70 69 68 68 68 67 67 66 66
14 12 12 10 10 9 8 9 10 11 10 19 19 40 56 60 64 64 74 81 84 85 86 87 83 78 80 79 78 78 77 75 74 70 67 67 66 64 68 67 66 66 65 63 63 63 63 63 63
10 11 11 10 10 9 9 9 10 14 19 22 20 37 61 58 58 63 71 76 85 87 84 86 82 78 84 87 76 74 71 68 66 62 60 60 64 64 58 52 62 59 58 57 55 56 58 61 64
8 13 13 10 9 8 7 8 9 13 16 22 27 35 46 53 56 63 70 72 72 74 79 79 78 81 86 83 78 73 67 67 65 59 52 62 62 58 59 58 53 51 52 51 51 53 60 66 67
11 13 11 7 8 8 7 7 8 12 13 25 35 46 49 53 58 63 65 67 66 70 68 72 75 81 75 50 73 71 62 64 65 64 62 67 62 60 50 54 51 48 56 54 59 59 61 54 50
9 13 10 8 8 7 7 7 6 7 11 14 34 48 47 51 54 56 53 54 59 58 62 60 76 74 58 54 54 51 58 63 68 70 69 67 63 69 62 63 58 61 55 54 52 52 53 58 60
8 9 9 7 7 7 8 7 7 7 9 12 24 39 42 47 48 47 47 49 51 52 56 55 57 64 60 49 50 55 55 62 63 67 70 72 69 71 70 64 60 61 63 64 62 61 63 60 56
9 8 7 6 6 8 8 8 8 8 8 11 18 34 37 40 41 39 41 44 47 50 54 55 56 61 61 62 64 63 64 62 65 64 67 70 68 73 68 66 62 62 64 63 63 62 61 59 55
11 10 9 8 7 6 8 8 8 8 8 14 16 24 30 33 36 38 41 45 46 46 49 56 52 62 58 63 67 67 67 67 63 67 68 68 71 73 67 67 64 64 64 64 63 63 62 60 58
12 13 11 10 8 8 6 7 7 7 11 14 18 20 25 30 32 38 40 44 42 42 45 58 62 63 65 64 61 62 59 58 62 65 71 68 68 67 66 68 68 67 65 62 63 62 60 60 53
15 14 16 11 9 8 7 11 8 7 13 12 14 20 25 30 35 40 42 40 39 40 48 53 46 60 64 63 61 55 60 62 61 64 68 69 66 67 65 67 72 72 66 64 64 65 64 63 62
16 17 15 12 7 8 9 11 9 10 11 13 16 22 27 34 39 40 40 38 36 40 48 48 59 61 64 65 63 63 63 59 58 60 64 67 65 66 66 68 71 72 65 68 64 68 69 67 63
18 17 15 14 9 9 10 11 9 10 12 14 18 23 29 35 38 40 40 38 34 42 48 52 56 62 64 60 60 59 61 57 55 57 60 63 62 64 68 66 71 67 65 65 69 74 69 69 64
16 17 17 14 12 13 14 12 10 10 10 14 14 22 29 32 34 38 40 41 42 48 50 51 60 63 54 52 53 53 55 55 54 53 58 62 65 65 68 66 68 67 66 70 68 72 70 70 65
17 18 18 15 12 14 14 14 11 11 11 10 13 15 27 31 34 41 41 42 47 50 50 52 53 55 47 45 49 50 55 55 51 51 56 57 62 66 57 69 69 68 68 71 73 75 72 70 70
15 17 16 15 12 12 14 14 13 11 10 10 11 13 18 32 39 44 44 47 50 51 53 48 48 49 50 51 47 51 54 57 54 52 47 53 56 62 66 66 68 68 69 72 73 74 73 76 71
16 11 13 16 18 21 13 20 15 11 11 11 14 19 22 32 40 43 45 48 50 53 54 49 50 51 50 52 50 51 44 48 49 49 50 49 57 56 60 65 66 68 71 73 70 65 72 74 76
14 13 14 17 20 20 17 17 15 12 13 13 17 21 25 38 41 43 45 46 45 50 54 55 52 47 51 50 55 53 53 48 47 52 56 57 58 58 54 61 65 68 68 71 72 74 73 72 76
11 15 16 18 20 31 20 18 17 16 18 18 22 23 26 29 39 41 43 43 44 47 53 58 51 48 51 52 51 59 59 55 56 56 55 54 56 58 60 56 64 66 66 67 68 72 72 75 75
14 19 37 35 35 34 17 18 19 17 14 21 24 23 26 30 34 39 42 43 46 52 56 56 46 45 48 51 52 55 56 59 60 56 58 58 59 62 63 63 65 64 64 63 63 66 72 74 77
17 18 35 37 35 25 14 20 27 16 20 21 20 22 27 30 37 38 42 44 46 52 55 53 46 44 42 47 49 53 52 52 52 54 55 60 62 64 63 64 63 62 61 61 66 66 68 70 74
19 22 16 26 26 33 23 21 15 18 23 28 25 23 34 35 36 37 41 45 50 52 56 58 49 41 42 46 50 53 53 52 55 58 59 58 61 51 61 62 62 63 64 63 65 69 69 67 72
16 14 30 31 47 48 30 23 30 34 33 31 44 60 29 37 36 37 39 47 47 51 56 59 54 51 46 49 50 49 54 54 56 58 60 62 61 59 61 62 63 64 66 68 69 69 70 71 72
21 28 24 23 29 45 57 55 50 44 43 50 36 42 96 40 56 45 41 45 48 68 54 59 62 85 63 52 51 56 54 57 58 58 61 61 61 60 59 61 64 72 71 69 73 78 74 74 77
21 26 26 47 45 46 63 60 39 44 33 29 28 27 59 60 64 96 51 50 66 55 55 58 61 75 99 73 57 64 73 70 64 69 68 68 66 64 64 65 69 72 81 88 77 80 85 86 85
Wind_Speed
10 11 9 10 7 9 16 20 19 1 4 15 12 10 14 13 7 5 1 8 11 14 12 13 16 16 14 14 12 11 11 10 11 12 12 13 13 13 14 14 12 10 10 9 8 7 7 8 7
10 18 8 8 10 13 13 17 14 19 15 9 6 2 8 10 9 5 2 9 9 14 11 11 15 16 15 16 15 15 15 16 15 15 14 16 16 14 14 13 13 12 11 11 10 11 9 10 9
11 14 7 8 13 15 17 15 7 13 8 3 3 9 8 7 11 4 1 3 11 13 13 13 16 15 16 17 16 17 16 16 15 15 15 14 15 15 15 15 13 12 10 10 10 10 11 11 11
9 7 7 9 18 21 22 9 7 4 7 4 2 12 9 15 8 11 5 7 11 14 14 13 15 15 16 17 17 17 17 16 15 15 15 14 15 16 16 15 13 11 11 10 11 11 11 11 11
9 7 12 18 22 23 15 5 8 5 11 10 6 11 8 11 18 15 8 11 14 13 12 13 15 17 17 16 17 18 18 17 16 16 14 13 15 16 15 14 12 11 11 10 10 10 10 10 10
8 10 14 16 22 10 5 4 8 8 13 8 3 13 9 18 15 12 12 14 13 12 11 13 19 20 18 17 17 17 16 15 15 13 11 12 14 15 14 13 12 12 10 10 11 11 11 11 10
12 11 16 21 23 21 4 9 4 10 12 11 4 10 13 17 16 11 10 13 12 11 11 11 11 16 19 17 16 16 15 14 13 13 9 9 11 12 12 12 11 11 10 9 11 10 11 12 11
12 11 19 19 18 14 9 4 2 8 4 7 5 6 11 20 19 13 11 10 11 10 9 9 10 11 11 9 16 12 12 11 12 8 4 4 8 11 11 10 9 7 8 7 8 9 10 11 13
12 11 13 21 16 4 10 2 7 5 8 5 12 9 23 25 21 16 13 10 7 7 7 6 9 10 10 9 10 9 9 9 10 7 2 8 1 5 7 5 2 1 6 4 6 8 11 11 14
10 12 19 18 13 15 9 2 12 2 11 7 11 18 23 23 21 18 16 13 11 11 10 6 6 9 11 10 10 9 7 3 6 6 3 3 2 1 3 4 4 3 11 5 10 6 10 11 6
13 15 18 20 11 11 11 11 7 10 12 4 20 20 20 21 18 17 17 16 14 13 8 9 7 6 10 8 7 5 4 5 4 4 3 1 3 3 4 3 3 4 8 4 6 6 5 6 5
14 14 15 19 13 6 12 14 16 5 4 9 13 21 18 19 17 16 15 16 14 13 11 9 7 4 5 4 3 4 4 4 4 5 6 3 3 4 3 3 4 4 3 5 5 4 5 6 6
14 16 17 17 8 14 11 16 15 14 9 9 11 20 16 15 15 13 15 14 12 12 11 11 7 6 3 6 5 5 4 4 5 5 5 4 4 3 4 3 4 4 4 4 4 4 5 5 6
16 17 17 17 18 17 15 17 15 17 10 7 9 12 15 15 16 13 16 15 14 13 11 9 9 7 5 6 6 4 5 5 5 5 5 6 4 4 4 4 5 4 4 4 4 4 4 4 4
12 16 19 20 20 21 17 15 18 20 4 9 8 9 14 14 16 16 15 15 14 12 11 8 8 7 7 7 5 5 3 5 6 5 6 6 6 4 4 4 4 4 3 5 4 5 5 5 5
18 20 18 19 20 16 8 13 20 5 11 9 10 8 7 11 12 14 13 12 13 13 11 9 10 9 8 7 5 5 4 4 5 6 5 6 6 6 5 4 4 5 4 4 5 5 5 5 5
17 17 21 16 7 3 11 10 4 7 10 10 9 10 11 12 14 14 14 13 13 13 12 9 8 8 7 6 6 5 5 5 5 5 4 6 5 6 4 4 4 5 5 5 6 5 5 5 5
18 19 17 19 2 10 14 14 14 15 15 13 15 13 12 13 14 14 15 14 13 13 10 10 8 8 7 6 6 5 4 5 5 5 5 6 5 6 6 5 5 5 5 6 5 6 5 4 7
19 18 17 19 22 24 19 19 16 14 15 14 11 16 17 14 13 14 11 11 13 10 10 10 10 8 7 6 7 7 6 6 6 5 6 7 6 6 6 4 5 6 5 6 6 5 7 5 8
12 20 21 20 20 19 20 23 18 14 17 17 17 13 19 19 18 16 12 10 10 9 8 9 9 10 8 5 4 5 5 5 6 6 6 6 6 6 6 6 5 6 4 6 6 6 5 4 7
15 15 18 21 18 17 19 24 20 19 20 19 11 11 4 21 21 19 16 12 9 10 9 10 9 6 5 9 6 5 6 4 4 6 7 5 6 6 6 6 5 5 5 4 5 6 7 4 5
17 15 15 14 14 15 15 19 17 13 13 14 12 7 6 19 21 17 15 13 10 8 6 6 7 7 6 7 8 10 7 6 5 6 5 6 6 6 6 6 6 6 4 5 5 6 4 5 5
18 13 15 13 17 19 17 14 16 15 16 14 11 11 8 14 20 19 16 14 12 11 6 6 7 7 5 4 6 3 8 7 6 5 7 7 5 7 6 6 6 5 4 4 5 6 6 5 4
16 15 20 17 15 16 18 18 18 15 6 5 17 11 9 12 17 17 16 16 13 12 9 7 7 6 6 5 4 7 7 7 5 5 5 4 5 5 6 6 5 5 5 5 4 5 6 5 5
18 16 11 11 13 14 18 18 15 9 7 15 14 13 10 8 12 16 18 15 13 13 11 9 10 9 7 7 6 7 7 7 7 6 5 6 4 5 5 6 6 4 4 4 5 5 6 5 4
16 17 12 16 14 15 18 12 6 9 15 9 11 15 14 11 8 12 16 14 14 14 12 11 11 10 9 7 8 6 7 4 4 5 5 5 5 5 6 6 5 5 5 5 5 4 4 5 5
14 18 20 21 20 16 16 23 23 13 13 11 9 7 9 10 10 11 15 14 15 14 13 10 11 11 10 8 7 6 6 6 7 6 6 5 6 6 6 6 6 5 6 5 6 4 5 6 5
19 16 13 12 15 21 15 19 8 8 10 4 4 5 4 8 10 11 13 14 15 15 12 11 10 10 10 9 7 6 6 7 6 5 7 7 6 6 6 6 6 6 7 7 7 6 7 7 6
13 15 18 17 14 14 12 9 12 8 12 7 4 5 4 2 7 8 10 13 14 12 14 11 9 9 9 9 8 8 7 7 7 7 6 6 6 6 6 6 7 6 6 7 8 8 8 9 8
22 18 18 13 14 15 12 12 3 13 8 9 9 9 12 8 12 6 11 15 12 14 14 13 11 9 6 7 9 8 7 7 7 7 8 7 6 6 7 7 7 7 7 7 7 8 8 7 7
Wind_Direction
288 244 231 247 245 231 257 253 254 286 83 47 45 20 84 40 31 65 300 349 85 102 89 78 81 86 84 81 89 91 91 89 90 91 94 94 85 80 74 64 59 57 58 49 41 25 17 14 18
298 287 245 275 244 264 261 267 34 46 59 59 85 346 268 85 72 109 109 345 76 90 90 85 77 83 84 82 79 79 84 82 84 87 85 86 85 87 84 74 65 62 57 51 46 36 26 19 13
269 269 275 240 245 247 267 294 50 65 38 21 91 55 21 74 113 90 81 75 94 91 84 87 85 85 85 83 82 82 78 79 78 87 91 86 90 84 78 70 64 61 55 44 37 31 25 22 15
252 252 238 260 267 273 272 340 72 353 120 258 258 96 90 28 106 119 137 88 95 97 92 83 88 89 87 87 85 83 79 75 75 77 80 83 84 78 72 67 61 57 52 44 36 24 15 10 9
249 263 260 261 264 261 265 20 351 329 288 175 172 101 86 81 102 114 105 91 89 86 101 91 84 83 79 77 77 80 78 74 66 67 67 75 77 73 68 65 55 47 40 35 31 19 8 0 356
269 249 267 270 274 307 23 15 359 289 277 133 147 116 96 121 121 123 108 100 98 99 95 90 85 82 82 80 78 78 81 87 86 78 72 69 72 70 64 58 50 41 30 27 19 7 355 347 338
246 273 275 280 296 298 306 83 271 261 254 190 185 110 126 143 128 123 98 109 105 101 93 92 92 93 88 86 85 86 82 77 87 73 74 84 84 79 73 58 43 33 19 16 13 0 341 330 323
251 271 279 280 276 293 67 78 10 298 29 45 24 153 158 136 133 128 109 99 119 116 117 125 117 112 106 104 95 93 100 101 98 106 114 134 125 115 88 50 43 24 11 13 2 346 333 324 316
264 269 267 267 308 314 95 336 164 349 305 51 52 37 116 133 135 132 126 121 109 110 108 112 122 122 122 119 122 127 135 141 118 137 204 222 81 13 103 90 96 333 1 344 337 326 317 313 299
231 256 266 278 342 331 356 110 290 215 236 144 104 100 124 139 147 147 151 150 149 144 142 147 144 153 158 142 164 167 157 87 57 34 15 10 96 25 344 137 218 192 3 22 352 330 341 19 354
250 249 274 301 345 323 313 289 249 264 264 33 154 143 148 153 160 160 162 156 150 152 149 157 184 199 189 135 165 160 133 135 107 63 348 33 66 14 23 21 32 0 15 9 356 12 8 346 341
253 273 283 281 300 312 285 290 288 246 295 54 118 147 156 165 169 170 161 147 145 152 150 156 176 171 110 134 123 114 116 111 99 92 4 11 56 53 29 27 22 34 3 8 355 20 345 342 334
290 282 280 273 292 281 263 272 279 279 288 108 111 146 162 173 171 175 132 130 144 143 151 158 146 118 102 83 70 86 119 74 80 74 50 8 43 41 42 22 37 35 25 6 358 4 338 342 349
286 293 295 285 283 270 254 260 259 258 241 124 147 168 165 179 173 156 134 145 152 150 154 146 137 135 134 97 113 99 110 121 82 65 48 29 59 3 59 35 43 18 40 358 4 339 345 334 338
304 286 278 267 255 244 244 257 261 256 157 173 177 192 174 185 175 152 145 143 144 145 142 132 118 116 113 125 128 99 101 91 104 93 58 46 23 37 49 58 32 355 9 16 1 1 356 337 349
279 267 269 268 251 228 154 256 277 126 160 209 184 203 191 170 162 119 123 135 136 140 145 148 143 137 154 128 129 112 108 105 101 96 82 63 34 359 46 53 27 325 10 34 5 3 1 335 2
263 261 263 275 184 207 182 249 184 172 187 190 191 183 184 173 130 133 138 146 155 144 154 137 127 114 107 96 85 92 107 90 84 75 75 78 56 8 65 48 20 334 21 34 11 353 3 337 353
301 312 317 319 200 211 247 263 263 190 205 207 184 181 187 181 163 155 157 160 158 130 129 132 128 127 136 146 144 127 112 96 87 91 79 49 45 36 11 65 39 355 41 26 12 350 341 12 358
306 296 288 288 298 301 296 291 280 262 274 213 208 179 173 187 169 149 160 136 118 131 143 155 143 147 162 161 154 151 135 123 114 91 75 72 49 36 22 29 48 1 57 28 17 340 349 10 355
283 288 286 285 279 274 280 275 277 284 269 263 201 208 175 167 160 144 152 136 137 142 152 142 154 185 186 159 105 107 109 93 99 98 81 72 63 34 61 29 38 25 26 43 24 4 358 10 19
273 270 281 282 294 292 292 280 273 250 251 259 258 178 123 159 153 150 148 149 150 163 160 167 167 175 84 91 97 87 100 139 137 133 90 68 69 58 53 43 45 26 35 26 35 12 36 346 19
270 267 285 297 285 277 279 288 280 264 242 238 162 132 68 159 140 146 151 160 170 157 158 144 121 98 125 165 148 168 171 121 90 89 96 88 64 67 50 55 45 40 51 33 23 34 26 16 27
277 294 277 273 279 284 270 265 275 268 252 208 153 125 119 127 145 155 156 157 164 147 140 126 134 145 147 85 103 101 90 109 102 112 111 118 97 64 61 48 48 41 43 48 31 52 26 47 32
289 274 278 264 265 253 263 260 272 268 12 102 112 134 142 141 145 151 154 163 168 146 146 143 136 132 123 122 139 106 117 119 126 136 119 99 97 87 48 54 67 48 43 25 36 47 54 44 55
266 263 273 261 240 249 248 246 244 135 117 136 133 137 141 142 153 153 157 162 162 152 147 151 170 155 144 146 134 124 120 107 118 130 113 116 95 89 73 70 46 40 45 29 55 44 51 58 48
257 247 230 270 274 278 293 284 351 93 112 115 140 154 149 154 145 156 157 162 157 155 161 183 157 156 155 151 133 132 127 125 106 112 109 86 90 91 92 85 70 58 39 51 33 50 67 48 60
245 259 288 274 264 275 280 285 294 171 131 126 149 145 128 148 159 171 158 167 154 162 172 173 165 160 156 141 138 139 114 118 108 96 100 92 113 121 91 87 84 67 50 28 85 41 38 52 61
251 271 274 277 278 263 268 281 281 78 91 62 66 36 87 154 163 171 167 169 158 165 166 172 163 149 149 144 139 138 122 115 122 118 99 98 94 95 96 83 77 75 63 38 38 56 40 38 33
258 226 252 260 261 267 255 270 134 219 127 202 256 180 224 185 151 160 170 164 161 157 162 166 151 147 149 150 152 136 132 125 123 113 111 103 102 101 101 96 79 53 53 81 64 41 44 56 30
294 265 270 271 243 275 302 270 149 162 199 197 195 180 185 201 156 175 169 161 150 165 164 166 146 139 150 155 138 135 119 135 124 112 106 103 101 97 94 89 83 85 69 31 91 80 57 50 63